Camp Pendleton, CA

9:26 PM PDT on May 25, 2017 (GMT -0700)
Camp Pendleton Marine Corps Air Station

Weather History for KNFG - October, 2012

Change the Weather History Date:

Tuesday, October 16, 2012

  Actual Average Record
Temperature  
Mean Temperature 70 °F -  
Max Temperature 91 °F 75 °F 97 °F (1997)
Min Temperature 50 °F 48 °F 39 °F (2008)
Cooling Degree Days 6    
Growing Degree Days 20 (Base 50)    
Moisture  
Dew Point 52 °F    
Average Humidity 63    
Maximum Humidity 83    
Minimum Humidity 20    
Precipitation  
Precipitation 0.00 in - - ()
Sea Level Pressure  
Sea Level Pressure 29.80 in    
Wind  
Wind Speed 3 mph (SW)    
Max Wind Speed 8 mph    
Max Gust Speed -    
Visibility 10 miles    
Events      
Averages and records for this station are not official NWS values.
T = Trace of Precipitation, MM = Missing Value Source: NWS Daily Summary

Daily Weather History Graph

Daily Weather History Graph

Search for Another Location

Airport or City:

Trip Planner

Search our weather history database for the weather conditions in past years. The results will help you decide how hot, cold, wet, or windy it might be!

Date:

Astronomy

Oct. 16, 2012 Rise Set
Actual Time 6:55 AM PDT 6:13 PM PDT
Civil Twilight 6:30 AM PDT 6:39 PM PDT
Nautical Twilight 6:01 AM PDT 7:07 PM PDT
Astronomical Twilight 5:32 AM PDT 7:36 PM PDT
Moon 8:16 AM PDT (10/16) 7:09 PM PDT (10/16)
Length of Visible Light 12h 08m
Length of Day
11h 18m
New Moon, 2% of the Moon is Illuminated
Oct 16
New Moon
Oct 21
First Quarter
Oct 29
Full
Nov 6
Last Quarter
Nov 13
New

Hourly Weather History & Observations

Time (PDT) Temp. Heat Index Dew Point Humidity Pressure Visibility Wind Dir Wind Speed Gust Speed Precip Events Conditions
12:32 AM 60.8 °F - 55.4 °F 82% 29.88 in 10.0 mi North - - N/A   Partly Cloudy
12:54 AM 59.0 °F - 54.0 °F 83% 29.88 in 8.0 mi North - - N/A   Clear
1:54 AM 57.0 °F - 52.0 °F 83% 29.87 in 10.0 mi North - - N/A   Clear
2:54 AM 55.0 °F - 50.0 °F 83% 29.86 in 10.0 mi North - - N/A   Clear
3:54 AM 55.0 °F - 50.0 °F 83% 29.83 in 10.0 mi North - - N/A   Clear
4:54 AM 53.1 °F - 48.0 °F 83% 29.83 in 10.0 mi North - - N/A   Clear
5:55 AM 53.1 °F - 48.0 °F 83% 29.83 in 10.0 mi North - - N/A   Clear
6:54 AM 50.0 °F - 45.0 °F 83% 29.85 in 10.0 mi Calm Calm - N/A   Clear
7:54 AM 55.9 °F - 48.9 °F 77% 29.85 in 10.0 mi Variable 3.5 mph - N/A   Clear
8:54 AM 62.1 °F - 52.0 °F 70% 29.86 in 10.0 mi Variable 3.5 mph - N/A   Clear
9:54 AM 73.0 °F - 54.0 °F 51% 29.86 in 10.0 mi Calm Calm - N/A   Clear
10:54 AM 79.0 °F - 55.0 °F 44% 29.83 in 10.0 mi SW 3.5 mph - N/A   Clear
11:54 AM 84.9 °F 83.6 °F 55.0 °F 36% 29.81 in 10.0 mi SW 8.1 mph - N/A   Clear
12:54 PM 88.0 °F - 50.0 °F 27% 29.78 in 10.0 mi SW 6.9 mph - N/A   Clear
1:54 PM 91.9 °F - 45.0 °F 20% 29.74 in 10.0 mi SSW 6.9 mph - N/A   Clear
2:54 PM 89.1 °F - 46.0 °F 22% 29.73 in 10.0 mi SW 3.5 mph - N/A   Clear
3:54 PM 87.1 °F - 46.0 °F 24% 29.72 in 10.0 mi SSW 8.1 mph - N/A   Clear
4:54 PM 84.9 °F - 48.9 °F 29% 29.71 in 10.0 mi SSW 6.9 mph - N/A   Clear
5:54 PM 75.9 °F - 55.0 °F 48% 29.72 in 10.0 mi Variable 3.5 mph - N/A   Clear
6:54 PM 70.0 °F - 60.1 °F 71% 29.74 in 9.0 mi Calm Calm - N/A   Clear
7:54 PM 68.0 °F - 59.0 °F 73% 29.75 in 9.0 mi Calm Calm - N/A   Clear
8:54 PM 64.0 °F - 55.9 °F 75% 29.76 in 9.0 mi Calm Calm - N/A   Clear
9:54 PM 59.0 °F - 54.0 °F 83% 29.76 in 9.0 mi Calm Calm - N/A   Clear
10:54 PM 59.0 °F - 53.1 °F 81% 29.75 in 9.0 mi Calm Calm - N/A   Clear
11:54 PM 60.1 °F - 53.1 °F 78% 29.75 in 10.0 mi Calm Calm - N/A   Clear